Location: Trebic
(49.2170°N, 15.8830°E)
Time: 15:05:59
(UTC+02:00)

Tiros 1 despin weight - All Passes

Search period start: 18 July 2019 00:00
Search period end: 28 July 2019 00:00
Orbit: 594 x 642 km, 48.2° (Epoch: 17 July)

Date Brightness Start Highest point End Pass type
(mag) Time Alt. Az. Time Alt. Az. Time Alt. Az.
18 Jul - 13:01:28 10° S 13:04:04 15° SE 13:06:40 10° ESE daylight
18 Jul - 14:40:25 10° SW 14:44:53 45° SSE 14:49:19 10° E daylight
18 Jul - 16:21:35 10° W 16:26:16 79° S 16:30:52 10° E daylight
18 Jul - 18:03:10 10° W 18:07:46 63° SSW 18:12:17 10° ESE daylight
18 Jul - 19:45:05 10° W 19:48:50 25° SW 19:52:32 10° SSE daylight
19 Jul - 13:16:34 10° SSW 13:20:19 24° SE 13:24:04 10° E daylight
19 Jul - 14:56:45 10° WSW 15:01:23 61° SSE 15:05:58 10° E daylight
19 Jul - 16:38:12 10° W 16:42:53 79° S 16:47:30 10° E daylight
19 Jul - 18:19:50 10° W 18:24:17 47° SSW 18:28:39 10° SE daylight
19 Jul - 20:02:25 10° WSW 20:05:04 15° SW 20:07:43 10° S daylight
20 Jul - 11:55:09 10° SE 11:56:02 10° SE 11:56:56 10° ESE daylight
20 Jul - 13:32:22 10° SW 13:36:41 37° SSE 13:40:58 10° E daylight
20 Jul - 15:13:17 10° WSW 15:17:58 74° S 15:22:36 10° E daylight
20 Jul - 16:54:51 10° W 16:59:30 71° S 17:04:05 10° ESE daylight
20 Jul - 18:36:35 10° W 18:40:42 32° SSW 18:44:46 10° SSE daylight
21 Jul - 12:09:00 10° S 12:12:13 18° SE 12:15:26 10° E daylight
21 Jul - 13:48:35 10° SW 13:53:08 52° SSE 13:57:40 10° E daylight
21 Jul - 15:29:53 10° W 15:34:36 80° S 15:39:14 10° E daylight
21 Jul - 17:11:29 10° W 17:16:04 56° SSW 17:20:33 10° ESE daylight
21 Jul - 18:53:36 10° W 18:57:01 21° SW 19:00:25 10° S daylight
22 Jul - 12:24:28 10° SSW 12:28:31 29° SSE 12:32:33 10° E daylight
22 Jul - 14:05:01 10° WSW 14:09:41 68° SSE 14:14:19 10° E daylight
22 Jul - 15:46:31 10° W 15:51:13 77° S 15:55:50 10° ESE daylight
22 Jul - 17:28:10 10° W 17:32:32 40° SSW 17:36:50 10° SE daylight
22 Jul - 19:11:25 10° WSW 19:13:13 12° SW 19:15:00 10° SSW daylight
23 Jul - 11:01:50 10° SSE 11:04:09 14° SE 11:06:29 10° ESE daylight
23 Jul - 12:40:29 10° SW 12:44:55 43° SSE 12:49:21 10° E daylight
23 Jul - 14:21:35 10° W 14:26:17 78° S 14:30:56 10° E daylight
23 Jul - 16:03:09 10° W 16:07:48 66° SSW 16:12:23 10° ESE daylight
23 Jul - 17:45:01 10° W 17:48:55 27° SSW 17:52:47 10° SSE daylight
24 Jul - 11:16:44 10° SSW 11:20:23 23° SE 11:24:03 10° E daylight
24 Jul - 12:56:47 10° WSW 13:01:24 59° SSE 13:06:01 10° E daylight
24 Jul - 14:38:12 10° W 14:42:54 80° S 14:47:35 10° E daylight
24 Jul - 16:19:49 10° W 16:24:20 50° SSW 16:28:48 10° SE daylight
24 Jul - 18:02:13 10° W 18:05:11 17° SW 18:08:07 10° S daylight
25 Jul - 11:32:29 10° SW 11:36:43 35° SSE 11:40:59 10° E daylight
25 Jul - 13:13:18 10° WSW 13:17:59 73° S 13:22:39 10° E daylight
25 Jul - 14:54:50 10° W 14:59:31 73° S 15:04:10 10° ESE daylight
25 Jul - 16:36:33 10° W 16:40:47 34° SSW 16:44:57 10° SE daylight
26 Jul - 10:09:17 10° S 10:12:17 17° SE 10:15:20 10° E daylight
26 Jul - 11:48:38 10° SW 11:53:10 50° SSE 11:57:42 10° E daylight
26 Jul - 13:29:53 10° W 13:34:36 80° S 13:39:17 10° E daylight
26 Jul - 15:11:28 10° W 15:16:06 59° SSW 15:20:39 10° ESE daylight
26 Jul - 16:53:29 10° W 16:57:06 22° SW 17:00:41 10° SSE daylight
27 Jul - 10:24:37 10° SSW 10:28:34 27° SSE 10:32:32 10° E daylight
27 Jul - 12:05:03 10° WSW 12:09:42 66° SSE 12:14:21 10° E daylight
27 Jul - 13:46:31 10° W 13:51:14 78° S 13:55:54 10° E daylight
27 Jul - 15:28:09 10° W 15:32:35 43° SSW 15:36:59 10° SE daylight
27 Jul - 17:11:04 10° WSW 17:13:19 13° SW 17:15:34 10° SSW daylight
